Location: Aiyekoto
(8.4333°N, 4.3667°E)
Time: 12:48:26
(UTC+00:00)

ADEOS - Pass Details

Date: 01 October 2020
Orbit: 792 x 794 km, 98.9° (Epoch: 27 October)

Event Time Altitude Azimuth Distance (km) Brightness Sun altitude
Rises 04:27:33 0° 355° (N) 3,279 6.7 -16.5°
Reaches altitude 10° 04:30:05 10° 345° (NNW) 2,351 5.9 -15.8°
Maximum altitude 04:34:37 31° 284° (WNW) 1,353 4.2 -14.7°
Drops below altitude 10° 04:39:10 10° 223° (SW) 2,355 5.6 -13.6°
Sets 04:41:43 0° 213° (SSW) 3,285 6.5 -13.0°
